OPS 4682 DEB, 38450

Orbit data source: Space-Track

OPS 4682 DEB, 38450 is space debris in LEO originally from a launch on Sat, 03 Apr 1965 UTC launched from the Air Force Western Test Range (AFWTR). Debris objects in space refer to the collection of defunct objects orbiting the Earth. Examples of debris include non-operational satellites, rocket bodies, and fragments generated from explosions, collisions, or faulty payload assembly.

Loading next visibility...
Identifier
38450, 1965-027FF
Orbit
LEO
Country
Flag of USUS
Related business
Manufacturer
Unknown
Mission
Spacecraft
Bus & Motor
Unknown
Mass
Unknown
Launch date (UTC)
1965-04-03 (61 years ago)
Launch vehicle
Unknown
Launch site
Air Force Western Test Range (AFWTR)
Object type
Payload
Rocket body
Debris
Shape & HBR
Unknown shape, 0.1 m
Radar Cross Section
Small (<0.1 m²)

Expand to show TLE details & history
Last TLE update: 2 days ago

TLE from 2 days ago
0 OPS 4682 DEB
1 38450U 65027FF  25301.43708614 -.00000366  00000-0 -12357-2 0  9991
2 38450  90.2399   2.2435 0028866 139.9323 220.3936 13.00348621601998
Epoch: 2025-10-28T10:29Z
TLE epoch observation values (Epoch: 2025-10-28T10:29:24.242Z)
Latitude
-0°
Longitude
167.8679°
Altitude
1,280.429 km
Speed
7.208 km/s
True Right ascension
00h 08m 58s
True Declination
0° 00' 00"
Sunlit
Object was in full shadow at epoch
Visualization orbit readout
Latitude
Unknown
Longitude
Unknown
Altitude
Unknown
Speed
Unknown
Apparent Right ascension
Unknown
Apparent Declination
Unknown
Sunlit
N/A
Visualization observer readout
Local Sidereal Time
22:15:22
Azimuth
Unknown
Elevation
Unknown
Doppler factor
Unknown
Orbital elements
Apogee altitude
1,279.889 km
Perigee altitude
1,235.805 km
Semi-major axis
7,635.984 km
Eccentricity
0.00289
Inclination
90.2399°
RAAN
2.2435°
Arg. of periapsis
139.9323°
True anomaly
220.17983°
Mean anomaly
220.3936°
Eccentric anomaly
220.28666°
Mean motion
3.25271 °/min
Orbital period
110.68 mins
BSTAR
-0.0012357
Loading maneuver chart data...
Computing Atmospheric mass density...
Loading historical data...
Loading historical data...
Loading historical data...
Loading historical data...
Loading historical data...
Loading historical data...
Loading historical data...

Documentation

Showing up to 5 results
|